Date,TemperatureHighF,TemperatureAvgF,TemperatureLowF,DewpointHighF,DewpointAvgF,DewpointLowF,HumidityHigh,HumidityAvg,HumidityLow,PressureMaxIn,PressureMinIn,WindSpeedMaxMPH,WindSpeedAvgMPH,GustSpeedMaxMPH,PrecipitationSumIn
2013-3-25,29,25,23,-100,-100,-100,0,0,100,0.00,40.00,0,-999,0,0.00
2013-3-26,32,28,19,-100,-100,-100,0,0,100,0.00,40.00,0,-999,0,0.00
2013-3-27,39,30,24,-100,-100,-100,0,0,100,0.00,40.00,0,-999,0,0.01
2013-3-28,71,39,27,-100,-100,-100,0,0,100,0.00,40.00,0,-999,0,0.00
2013-3-29,69,37,28,-100,-100,-100,0,0,100,0.00,40.00,0,-999,0,1.70
2013-3-30,42,33,23,-100,-100,-100,0,0,100,0.00,40.00,0,-999,0,1.69
2013-3-31,43,34,24,-100,-100,-100,0,0,100,0.00,40.00,0,-999,0,0.00
2013-4-1,41,35,27,-100,-100,-100,0,0,100,0.00,40.00,0,-999,0,0.00
2013-4-2,36,29,21,-100,-100,-100,0,0,100,0.00,40.00,0,-999,0,0.00
2013-4-3,42,28,20,-100,-100,-100,0,0,100,0.00,40.00,0,-999,0,0.00
2013-4-4,47,33,20,-100,-100,-100,0,0,100,0.00,40.00,0,-999,0,0.00
2013-4-5,42,36,32,-100,-100,-100,0,0,100,0.00,40.00,0,-999,0,0.01
2013-4-6,41,34,27,-100,-100,-100,0,0,100,0.00,40.00,0,-999,0,0.01
2013-4-7,40,34,27,-100,-100,-100,0,0,100,0.00,40.00,0,-999,0,0.00
2013-4-8,37,32,29,-100,-100,-100,0,0,100,0.00,40.00,0,-999,0,0.00
2013-4-9,28,24,20,-100,-100,-100,0,0,100,0.00,40.00,0,-999,0,0.04
2013-4-10,28,19,11,-100,-100,-100,0,0,100,0.00,40.00,0,-999,0,0.01
2013-4-11,36,26,8,-100,-100,-100,0,0,100,0.00,40.00,0,-999,0,0.01
2013-4-12,36,25,13,-100,-100,-100,0,0,100,0.00,40.00,0,-999,0,0.00
2013-4-13,37,31,25,-100,-100,-100,0,0,100,0.00,40.00,0,-999,0,0.01
2013-4-14,33,30,26,-100,-100,-100,0,0,100,0.00,40.00,0,-999,0,0.01
2013-4-15,37,32,26,-100,-100,-100,0,0,100,0.00,40.00,0,-999,0,0.01
2013-4-16,42,34,26,-100,-100,-100,0,0,100,0.00,40.00,0,-999,0,0.00
2013-4-17,30,20,8,-100,-100,-100,0,0,100,0.00,40.00,0,-999,0,0.01
2013-4-18,22,8,-1,-100,-100,-100,0,0,100,0.00,40.00,0,-999,0,0.01
2013-4-19,33,22,5,-100,-100,-100,0,0,100,0.00,40.00,0,-999,0,0.01
2013-4-20,31,24,15,-100,-100,-100,0,0,100,0.00,40.00,0,-999,0,0.01
2013-4-21,40,29,14,-100,-100,-100,0,0,100,0.00,40.00,0,-999,0,0.01
2013-4-22,43,36,29,-100,-100,-100,0,0,100,0.00,40.00,0,-999,0,0.01
2013-4-23,38,33,27,-100,-100,-100,0,0,100,0.00,40.00,0,-999,0,0.01
2013-4-24,38,34,29,-100,-100,-100,0,0,100,0.00,40.00,0,-999,0,0.00
2013-4-25,40,33,27,-100,-100,-100,0,0,100,0.00,40.00,0,-999,0,0.01
2013-4-26,42,32,21,-100,-100,-100,0,0,100,0.00,40.00,0,-999,0,0.01
2013-4-27,45,34,23,-100,-100,-100,0,0,100,0.00,40.00,0,-999,0,0.00
2013-4-28,50,37,26,-100,-100,-100,0,0,100,0.00,40.00,0,-999,0,0.00
2013-4-29,50,42,30,-100,-100,-100,0,0,100,0.00,40.00,0,-999,0,0.00
2013-4-30,49,44,40,-100,-100,-100,0,0,100,0.00,40.00,0,-999,0,0.00
2013-5-1,42,36,20,-100,-100,-100,0,0,100,0.00,40.00,0,-999,0,0.01
2013-5-2,38,24,11,-100,-100,-100,0,0,100,0.00,40.00,0,-999,0,0.00
2013-5-3,45,33,19,-100,-100,-100,0,0,100,0.00,40.00,0,-999,0,0.00
2013-5-4,43,35,27,-100,-100,-100,0,0,100,0.00,40.00,0,-999,0,0.00
2013-5-5,42,34,29,-100,-100,-100,0,0,100,0.00,40.00,0,-999,0,0.00
2013-5-6,39,32,29,-100,-100,-100,0,0,100,0.00,40.00,0,-999,0,0.02
2013-5-7,42,34,29,-100,-100,-100,0,0,100,0.00,40.00,0,-999,0,0.01
2013-5-8,35,30,25,-100,-100,-100,0,0,100,0.00,40.00,0,-999,0,0.01
2013-5-9,36,28,23,-100,-100,-100,0,0,100,0.00,40.00,0,-999,0,0.01
2013-5-10,42,30,22,-100,-100,-100,0,0,100,0.00,40.00,0,-999,0,0.01
2013-5-11,45,34,26,-100,-100,-100,0,0,100,0.00,40.00,0,-999,0,0.01
2013-5-12,48,38,27,-100,-100,-100,0,0,100,0.00,40.00,0,-999,0,0.00
2013-5-13,55,42,34,-100,-100,-100,0,0,100,0.00,40.00,0,-999,0,0.00
2013-5-14,52,41,35,-100,-100,-100,0,0,100,0.00,40.00,0,-999,0,0.00
2013-5-15,49,41,35,-100,-100,-100,0,0,100,0.00,40.00,0,-999,0,0.01
2013-5-16,52,44,34,-100,-100,-100,0,0,100,0.00,40.00,0,-999,0,0.00
2013-5-17,51,45,39,-100,-100,-100,0,0,100,0.00,40.00,0,-999,0,0.00
2013-5-18,43,38,31,-100,-100,-100,0,0,100,0.00,40.00,0,-999,0,0.01
2013-5-19,37,30,25,-100,-100,-100,0,0,100,0.00,40.00,0,-999,0,0.01
2013-5-20,38,30,22,-100,-100,-100,0,0,100,0.00,40.00,0,-999,0,0.01
2013-5-21,47,38,23,-100,-100,-100,0,0,100,0.00,40.00,0,-999,0,0.01
2013-5-22,53,43,31,-100,-100,-100,0,0,100,0.00,40.00,0,-999,0,0.00
2013-5-23,55,46,35,-100,-100,-100,0,0,100,0.00,40.00,0,-999,0,0.00
2013-5-24,53,46,39,-100,-100,-100,0,0,100,0.00,40.00,0,-999,0,0.00
2013-5-25,55,48,42,-100,-100,-100,0,0,100,0.00,40.00,0,-999,0,0.00
2013-5-26,54,47,41,-100,-100,-100,0,0,100,0.00,40.00,0,-999,0,0.00
2013-5-27,50,44,39,-100,-100,-100,0,0,100,0.00,40.00,0,-999,0,0.01
2013-5-28,52,44,38,-100,-100,-100,0,0,100,0.00,40.00,0,-999,0,0.00
2013-5-29,43,38,33,-100,-100,-100,0,0,100,0.00,40.00,0,-999,0,0.00
2013-5-30,47,38,30,-100,-100,-100,0,0,100,0.00,40.00,0,-999,0,1.25
2013-5-31,55,44,31,-100,-100,-100,0,0,100,0.00,40.00,0,-999,0,0.00
2013-6-1,55,40,26,-100,-100,-100,0,0,100,0.00,40.00,0,-999,0,0.00
2013-6-2,56,49,42,-100,-100,-100,0,0,100,0.00,40.00,0,-999,0,0.00
2013-6-3,55,49,44,-100,-100,-100,0,0,100,0.00,40.00,0,-999,0,0.63
2013-6-4,58,50,37,-100,-100,-100,0,0,100,0.00,40.00,0,-999,0,0.62
2013-6-5,56,47,39,-100,-100,-100,0,0,100,0.00,40.00,0,-999,0,0.01
2013-6-6,56,44,37,-100,-100,-100,0,0,100,0.00,40.00,0,-999,0,0.01
2013-6-7,53,44,37,-100,-100,-100,0,0,100,0.00,40.00,0,-999,0,0.01
2013-6-8,64,50,37,-100,-100,-100,0,0,100,0.00,40.00,0,-999,0,0.00
2013-6-9,69,53,40,-100,-100,-100,0,0,100,0.00,40.00,0,-999,0,0.00
2013-6-10,66,57,45,-100,-100,-100,0,0,100,0.00,40.00,0,-999,0,0.00
2013-6-11,60,55,47,-100,-100,-100,0,0,100,0.00,40.00,0,-999,0,0.01
2013-6-12,63,56,50,-100,-100,-100,0,0,100,0.00,40.00,0,-999,0,0.01
2013-6-13,65,54,47,-100,-100,-100,0,0,100,0.00,40.00,0,-999,0,0.01
2013-6-14,62,52,44,-100,-100,-100,0,0,100,0.00,40.00,0,-999,0,0.01
2013-6-15,59,51,41,-100,-100,-100,0,0,100,0.00,40.00,0,-999,0,0.00
2013-6-16,58,50,41,-100,-100,-100,0,0,100,0.00,40.00,0,-999,0,0.01
2013-6-17,60,50,41,-100,-100,-100,0,0,100,0.00,40.00,0,-999,0,0.01
2013-6-18,59,51,42,-100,-100,-100,0,0,100,0.00,40.00,0,-999,0,0.01
2013-6-19,61,55,48,-100,-100,-100,0,0,100,0.00,40.00,0,-999,0,0.00
2013-6-20,57,49,45,-100,-100,-100,0,0,100,0.00,40.00,0,-999,0,0.00
2013-6-22,57,54,48,-100,-100,-100,0,0,100,0.00,40.00,0,-999,0,0.01
2013-6-23,61,52,40,-100,-100,-100,0,0,100,0.00,40.00,0,-999,0,0.00
2013-6-24,56,50,40,-100,-100,-100,0,0,100,0.00,40.00,0,-999,0,0.01
2013-6-25,61,51,43,-100,-100,-100,0,0,100,0.00,40.00,0,-999,0,0.00
2013-6-26,72,56,45,-100,-100,-100,0,0,100,0.00,40.00,0,-999,0,0.00
2013-6-27,72,57,47,-100,-100,-100,0,0,100,0.00,40.00,0,-999,0,0.01
2013-6-28,63,54,48,-100,-100,-100,0,0,100,0.00,40.00,0,-999,0,0.01
2013-6-29,62,51,44,-100,-100,-100,0,0,100,0.00,40.00,0,-999,0,0.01
2013-6-30,65,50,40,-100,-100,-100,0,0,100,0.00,40.00,0,-999,0,0.03
2013-7-1,62,48,38,-100,-100,-100,0,0,100,0.00,40.00,0,-999,0,0.03
2013-7-2,60,48,39,-100,-100,-100,0,0,100,0.00,40.00,0,-999,0,0.01
2013-7-3,60,49,39,-100,-100,-100,0,0,100,0.00,40.00,0,-999,0,0.01
2013-7-4,64,50,42,-100,-100,-100,0,0,100,0.00,40.00,0,-999,0,0.01
2013-7-5,61,50,45,-100,-100,-100,0,0,100,0.00,40.00,0,-999,0,0.02
2013-7-6,58,49,45,-100,-100,-100,0,0,100,0.00,40.00,0,-999,0,0.01
2013-7-7,63,53,44,-100,-100,-100,0,0,100,0.00,40.00,0,-999,0,0.00
2013-7-8,64,52,45,-100,-100,-100,0,0,100,0.00,40.00,0,-999,0,0.01
2013-7-9,64,54,48,-100,-100,-100,0,0,100,0.00,40.00,0,-999,0,0.00
2013-7-10,63,54,50,-100,-100,-100,0,0,100,0.00,40.00,0,-999,0,0.01
2013-7-11,61,52,47,-100,-100,-100,0,0,100,0.00,40.00,0,-999,0,0.01
2013-7-12,63,52,44,-100,-100,-100,0,0,100,0.00,40.00,0,-999,0,0.01
2013-7-13,62,54,46,-100,-100,-100,0,0,100,0.00,40.00,0,-999,0,0.01
2013-7-14,58,50,43,-100,-100,-100,0,0,100,0.00,40.00,0,-999,0,0.01
2013-7-15,50,46,43,-100,-100,-100,0,0,100,0.00,40.00,0,-999,0,0.01
2013-7-16,58,46,37,-100,-100,-100,0,0,100,0.00,40.00,0,-999,0,0.00
2013-7-17,63,50,40,-100,-100,-100,0,0,100,0.00,40.00,0,-999,0,0.00
2013-7-18,65,52,43,-100,-100,-100,0,0,100,0.00,40.00,0,-999,0,0.04
2013-7-19,54,47,42,-100,-100,-100,0,0,100,0.00,40.00,0,-999,0,0.05
2013-7-20,64,52,43,-100,-100,-100,0,0,100,0.00,40.00,0,-999,0,0.00
2013-7-21,64,54,45,-100,-100,-100,0,0,100,0.00,40.00,0,-999,0,0.01
2013-7-22,62,54,48,-100,-100,-100,0,0,100,0.00,40.00,0,-999,0,0.00
2013-7-23,66,55,48,-100,-100,-100,0,0,100,0.00,40.00,0,-999,0,0.01
2013-7-24,62,53,47,-100,-100,-100,0,0,100,0.00,40.00,0,-999,0,0.01
2013-7-25,63,52,43,-100,-100,-100,0,0,100,0.00,40.00,0,-999,0,0.01
2013-7-26,59,50,43,-100,-100,-100,0,0,100,0.00,40.00,0,-999,0,0.02
2013-7-27,57,48,44,-100,-100,-100,0,0,100,0.00,40.00,0,-999,0,0.02
2013-7-28,53,46,42,-100,-100,-100,0,0,100,0.00,40.00,0,-999,0,0.02
2013-7-29,57,49,44,-100,-100,-100,0,0,100,0.00,40.00,0,-999,0,0.01
2013-7-30,57,51,39,-100,-100,-100,0,0,100,0.00,40.00,0,-999,0,0.00
2013-7-31,63,54,43,-100,-100,-100,0,0,100,0.00,40.00,0,-999,0,0.00
2013-8-1,55,50,46,-100,-100,-100,0,0,100,0.00,40.00,0,-999,0,0.01
2013-8-2,60,49,43,-100,-100,-100,0,0,100,0.00,40.00,0,-999,0,0.02
2013-8-3,59,50,43,-100,-100,-100,0,0,100,0.00,40.00,0,-999,0,0.02
2013-8-4,63,52,43,-100,-100,-100,0,0,100,0.00,40.00,0,-999,0,0.00
2013-8-5,64,50,43,-100,-100,-100,0,0,100,0.00,40.00,0,-999,0,0.00
2013-8-6,55,48,40,-100,-100,-100,0,0,100,0.00,40.00,0,-999,0,0.01
2013-8-7,50,44,40,-100,-100,-100,0,0,100,0.00,40.00,0,-999,0,0.04
2013-8-8,51,42,36,-100,-100,-100,0,0,100,0.00,40.00,0,-999,0,0.04
2013-8-9,54,44,35,-100,-100,-100,0,0,100,0.00,40.00,0,-999,0,0.02
2013-8-10,56,46,35,-100,-100,-100,0,0,100,0.00,40.00,0,-999,0,0.02
2013-8-11,52,43,36,-100,-100,-100,0,0,100,0.00,40.00,0,-999,0,0.02
2013-8-12,53,45,39,-100,-100,-100,0,0,100,0.00,40.00,0,-999,0,0.01
2013-8-13,56,45,38,-100,-100,-100,0,0,100,0.00,40.00,0,-999,0,0.01
2013-8-14,56,47,40,-100,-100,-100,0,0,100,0.00,40.00,0,-999,0,0.00
2013-8-15,61,50,39,-100,-100,-100,0,0,100,0.00,40.00,0,-999,0,0.00
2013-8-16,63,54,45,-100,-100,-100,0,0,100,0.00,40.00,0,-999,0,0.00
2013-8-17,59,53,48,-100,-100,-100,0,0,100,0.00,40.00,0,-999,0,0.00
2013-8-18,55,49,47,-100,-100,-100,0,0,100,0.00,40.00,0,-999,0,0.02
2013-8-19,64,53,45,-100,-100,-100,0,0,100,0.00,40.00,0,-999,0,0.01
2013-8-20,60,53,45,-100,-100,-100,0,0,100,0.00,40.00,0,-999,0,0.00
2013-8-21,63,51,46,-100,-100,-100,0,0,100,0.00,40.00,0,-999,0,0.00
2013-8-22,58,50,44,-100,-100,-100,0,0,100,0.00,40.00,0,-999,0,0.02
2013-8-23,60,51,43,-100,-100,-100,0,0,100,0.00,40.00,0,-999,0,0.01
2013-8-24,54,49,44,-100,-100,-100,0,0,100,0.00,40.00,0,-999,0,0.01
2013-8-25,50,47,44,-100,-100,-100,0,0,100,0.00,40.00,0,-999,0,0.02
2013-8-26,59,52,46,-100,-100,-100,0,0,100,0.00,40.00,0,-999,0,0.01
2013-8-27,60,52,46,-100,-100,-100,0,0,100,0.00,40.00,0,-999,0,0.00
2013-8-28,63,55,48,-100,-100,-100,0,0,100,0.00,40.00,0,-999,0,0.01
2013-8-29,62,53,45,-100,-100,-100,0,0,100,0.00,40.00,0,-999,0,0.00
2013-8-30,68,58,48,-100,-100,-100,0,0,100,0.00,40.00,0,-999,0,0.00
2013-8-31,61,52,47,-100,-100,-100,0,0,100,0.00,40.00,0,-999,0,0.01
2013-9-1,65,53,44,-100,-100,-100,0,0,100,0.00,40.00,0,-999,0,0.00
2013-9-2,58,48,42,-100,-100,-100,0,0,100,0.00,40.00,0,-999,0,0.02
2013-9-3,60,50,43,-100,-100,-100,0,0,100,0.00,40.00,0,-999,0,0.01
2013-9-4,66,55,45,-100,-100,-100,0,0,100,0.00,40.00,0,-999,0,0.00
2013-9-5,66,55,47,-100,-100,-100,0,0,100,0.00,40.00,0,-999,0,0.00
2013-9-6,63,54,45,-100,-100,-100,0,0,100,0.00,40.00,0,-999,0,0.00
2013-9-7,62,55,49,-100,-100,-100,0,0,100,0.00,40.00,0,-999,0,0.00
2013-9-8,61,52,47,-100,-100,-100,0,0,100,0.00,40.00,0,-999,0,0.01
2013-9-9,58,49,43,-100,-100,-100,0,0,100,0.00,40.00,0,-999,0,0.01
2013-9-10,52,45,40,-100,-100,-100,0,0,100,0.00,40.00,0,-999,0,0.01
2013-9-11,54,48,42,-100,-100,-100,0,0,100,0.00,40.00,0,-999,0,0.01
2013-9-12,50,44,40,-100,-100,-100,0,0,100,0.00,40.00,0,-999,0,0.01
2013-9-13,50,44,40,-100,-100,-100,0,0,100,0.00,40.00,0,-999,0,0.01
2013-9-14,49,42,38,-100,-100,-100,0,0,100,0.00,40.00,0,-999,0,0.01
2013-9-15,47,41,38,-100,-100,-100,0,0,100,0.00,40.00,0,-999,0,0.01
2013-9-16,53,43,37,-100,-100,-100,0,0,100,0.00,40.00,0,-999,0,0.01
2013-9-17,54,46,39,-100,-100,-100,0,0,100,0.00,40.00,0,-999,0,0.00
2013-9-18,44,42,38,-100,-100,-100,0,0,100,0.00,40.00,0,-999,0,0.02
2013-9-19,52,44,37,-100,-100,-100,0,0,100,0.00,40.00,0,-999,0,0.01
2013-9-20,55,47,37,-100,-100,-100,0,0,100,0.00,40.00,0,-999,0,0.00
2013-9-21,53,46,42,-100,-100,-100,0,0,100,0.00,40.00,0,-999,0,0.00
2013-9-22,45,39,28,-100,-100,-100,0,0,100,0.00,40.00,0,-999,0,0.02
2013-9-23,40,32,28,-100,-100,-100,0,0,100,0.00,40.00,0,-999,0,0.01
2013-9-24,53,41,29,-100,-100,-100,0,0,100,0.00,40.00,0,-999,0,0.00
2013-9-25,50,45,40,-100,-100,-100,0,0,100,0.00,40.00,0,-999,0,0.00
2013-9-26,48,43,37,-100,-100,-100,0,0,100,0.00,40.00,0,-999,0,0.00
2013-9-27,40,31,20,-100,-100,-100,0,0,100,0.00,40.00,0,-999,0,0.03
2013-10-2,50,44,33,-100,-100,-100,0,0,100,0.00,40.00,0,-999,0,0.00
2013-10-3,45,41,36,-100,-100,-100,0,0,100,0.00,40.00,0,-999,0,0.00
2013-10-4,37,30,22,-100,-100,-100,0,0,100,0.00,40.00,0,-999,0,0.01
2013-10-5,43,28,15,-100,-100,-100,0,0,100,0.00,40.00,0,-999,0,0.00
2013-10-6,52,36,27,-100,-100,-100,0,0,100,0.00,40.00,0,-999,0,0.00
2013-10-7,55,42,32,-100,-100,-100,0,0,100,0.00,40.00,0,-999,0,0.00
2013-10-8,47,42,37,-100,-100,-100,0,0,100,0.00,40.00,0,-999,0,0.00
2013-10-9,47,39,33,-100,-100,-100,0,0,100,0.00,40.00,0,-999,0,0.00
2013-10-10,36,31,26,-100,-100,-100,0,0,100,0.00,40.00,0,-999,0,0.02
2013-10-11,35,27,21,-100,-100,-100,0,0,100,0.00,40.00,0,-999,0,0.02
2013-10-12,41,30,23,-100,-100,-100,0,0,100,0.00,40.00,0,-999,0,0.00
2013-10-13,42,37,33,-100,-100,-100,0,0,100,0.00,40.00,0,-999,0,0.02
2013-10-21,30,28,25,-100,-100,-100,0,0,100,0.00,40.00,0,-999,0,0.00
2013-10-22,48,37,26,-100,-100,-100,0,0,100,0.00,40.00,0,-999,0,0.00
2013-10-23,37,33,31,-100,-100,-100,0,0,100,0.00,40.00,0,-999,0,0.00
2013-10-24,46,42,37,-100,-100,-100,0,0,100,0.00,40.00,0,-999,0,0.00
2013-10-25,32,31,30,-100,-100,-100,0,0,100,0.00,40.00,0,-999,0,0.00
2013-10-26,38,31,26,-100,-100,-100,0,0,100,0.00,40.00,0,-999,0,0.00
2013-10-27,36,33,30,-100,-100,-100,0,0,100,0.00,40.00,0,-999,0,0.00
2013-11-12,46,34,28,-100,-100,-100,0,0,100,0.00,40.00,0,-999,0,0.00
2013-11-13,36,32,27,-100,-100,-100,0,0,100,0.00,40.00,0,-999,0,0.00
2013-11-14,38,30,26,-100,-100,-100,0,0,100,0.00,40.00,0,-999,0,0.00
2013-11-15,26,26,26,-100,-100,-100,0,0,100,0.00,40.00,0,-999,0,0.00
2013-11-16,24,22,21,-100,-100,-100,0,0,100,0.00,40.00,0,-999,0,0.00
2013-11-17,35,29,23,-100,-100,-100,0,0,100,0.00,40.00,0,-999,0,0.00
2013-11-18,45,27,18,-100,-100,-100,0,0,100,0.00,40.00,0,-999,0,0.00
2013-11-19,36,30,27,-100,-100,-100,0,0,100,0.00,40.00,0,-999,0,0.01
2013-11-20,27,25,23,-100,-100,-100,0,0,100,0.00,40.00,0,-999,0,0.00
2013-11-21,28,26,25,-100,-100,-100,0,0,100,0.00,40.00,0,-999,0,0.01
2013-11-22,25,24,23,-100,-100,-100,0,0,100,0.00,40.00,0,-999,0,0.00
2013-11-23,28,23,19,-100,-100,-100,0,0,100,0.00,40.00,0,-999,0,0.02
2013-11-24,28,21,18,-100,-100,-100,0,0,100,0.00,40.00,0,-999,0,0.02
2013-11-25,20,19,17,-100,-100,-100,0,0,100,0.00,40.00,0,-999,0,0.02
2013-11-26,30,19,13,-100,-100,-100,0,0,100,0.00,40.00,0,-999,0,0.00
2013-11-27,24,20,15,-100,-100,-100,0,0,100,0.00,40.00,0,-999,0,0.00
2013-11-28,35,27,22,-100,-100,-100,0,0,100,0.00,40.00,0,-999,0,0.00
2013-11-29,32,32,32,-100,-100,-100,0,0,100,0.00,40.00,0,-999,0,0.00
2013-11-30,32,23,17,-100,-100,-100,0,0,100,0.00,40.00,0,-999,0,0.00
2013-12-1,35,25,14,-100,-100,-100,0,0,100,0.00,40.00,0,-999,0,0.00
2013-12-2,29,29,29,-100,-100,-100,0,0,100,0.00,40.00,0,-999,0,0.00
2013-12-3,25,24,22,-100,-100,-100,0,0,100,0.00,40.00,0,-999,0,0.00
2013-12-4,20,16,7,-100,-100,-100,0,0,100,0.00,40.00,0,-999,0,0.02
2013-12-5,9,6,1,-100,-100,-100,0,0,100,0.00,40.00,0,-999,0,0.02
2013-12-6,4,0,-3,-100,-100,-100,0,0,100,0.00,40.00,0,-999,0,0.01
2013-12-7,9,8,6,-100,-100,-100,0,0,100,0.00,40.00,0,-999,0,0.02
2013-12-8,1,-1,-2,-100,-100,-100,0,0,100,0.00,40.00,0,-999,0,0.03
2013-12-9,1,-3,-8,-100,-100,-100,0,0,100,0.00,40.00,0,-999,0,0.00
2013-12-10,26,14,-1,-100,-100,-100,0,0,100,0.00,40.00,0,-999,0,0.01
2013-12-11,31,15,6,-100,-100,-100,0,0,100,0.00,40.00,0,-999,0,0.00
2013-12-12,20,19,18,-100,-100,-100,0,0,100,0.00,40.00,0,-999,0,0.00
2013-12-13,32,20,13,-100,-100,-100,0,0,100,0.00,40.00,0,-999,0,0.00
2013-12-14,24,17,8,-100,-100,-100,0,0,100,0.00,40.00,0,-999,0,0.00
2013-12-15,31,26,21,-100,-100,-100,0,0,100,0.00,40.00,0,-999,0,0.00
2013-12-16,41,27,19,-100,-100,-100,0,0,100,0.00,40.00,0,-999,0,0.00
2013-12-17,34,26,21,-100,-100,-100,0,0,100,0.00,40.00,0,-999,0,0.00
2013-12-18,33,33,33,-100,-100,-100,0,0,100,0.00,40.00,0,-999,0,0.00
2013-12-19,28,24,20,-100,-100,-100,0,0,100,0.00,40.00,0,-999,0,0.00
2013-12-20,21,20,19,-100,-100,-100,0,0,100,0.00,40.00,0,-999,0,0.00
2013-12-21,13,9,6,-100,-100,-100,0,0,100,0.00,40.00,0,-999,0,0.00
2013-12-22,19,9,-1,-100,-100,-100,0,0,100,0.00,40.00,0,-999,0,0.01
2013-12-23,29,11,2,-100,-100,-100,0,0,100,0.00,40.00,0,-999,0,0.01
2013-12-24,14,14,14,-100,-100,-100,0,0,100,0.00,40.00,0,-999,0,0.00
2013-12-25,13,13,13,-100,-100,-100,0,0,100,0.00,40.00,0,-999,0,0.00
2013-12-26,36,24,14,-100,-100,-100,0,0,100,0.00,40.00,0,-999,0,0.00
2013-12-27,22,18,16,-100,-100,-100,0,0,100,0.00,40.00,0,-999,0,0.00
2013-12-28,27,25,23,-100,-100,-100,0,0,100,0.00,40.00,0,-999,0,0.00
2013-12-29,25,20,16,-100,-100,-100,0,0,100,0.00,40.00,0,-999,0,0.00
2013-12-30,23,21,19,-100,-100,-100,0,0,100,0.00,40.00,0,-999,0,0.00
2013-12-31,16,16,16,-100,-100,-100,0,0,100,0.00,40.00,0,-999,0,0.00
2014-1-1,24,19,16,-100,-100,-100,0,0,100,0.00,40.00,0,-999,0,0.00
2014-1-2,24,19,15,-100,-100,-100,0,0,100,0.00,40.00,0,-999,0,0.00